Starlink 1704

operational
NORAD ID: 47625 Int'l Des: 2021-012 Owner: SPXS Country: US Constellation: starlink
LEOCIRCULARSTARLINK_TYPE

About Starlink 1704

Description loading...

Live Position

Loading 3D Globe...

Upcoming Passes

Altitude History

Altitude vs Time

uPlot chart will show altitude changes over time

Two-Line Element Set

1 47625U 21012F 25347.00009259 -.00007505 00000-0 -45127-3 0 9997
2 47625 53.0545 100.7483 0001796 100.7133 247.1397 15.09045537 5703
Epoch: Dec 13, 2025 • Age: 14 hours

Current Status

Altitude 558.8 km
Velocity 7.58 km/s
Sub-Earth Point -53.14°S, 80.03°E
Launch Date Feb 16, 2021
Age 4.8 years
Type internet

Technical Details

Classification Payload
Mass 260.00 kg
Dry Mass 248.00 kg
Total Mass 260.00 kg
Length 0.20 m
Diameter 2.80 m
Span 9.00 m
Shape Box + pan
Manufacturer SPXS
Bus Type Starlink
Phase Status In Orbit
Owner/State SPXS/US

Large Constellations

Loading constellations...